Regional Weather Roundup
Issued by NWS Midland/Odessa, TX

Skip options and go directly to product.
Home | Oldest Version | Previous Version | Current Version | All | Text Only | Save Text | Print | Product List | Glossary On

Skip product version selection by date and time.   
302
ASUS44 KMAF 300101
RWRMAF
MIDLAND AREA WEATHER ROUNDUP
NATIONAL WEATHER SERVICE MIDLAND TX
800 PM CDT SUN MAY 29 2016

...IN SOUTHWEST TEXAS AND SOUTHEAST NEW MEXICO...

CITY           SKY/WX    TMP DP  RH WIND       PRES   REMARKS
ALPINE         PTCLDY    81  53  37 SE8       30.15S
ANDREWS        FAIR      78  61  55 SW9       30.03F
ARTESIA        SUNNY     81  55  41 SE16G23   29.98F
BIG SPRING     CLOUDY    78  62  57 S13       30.02R
CARLSBAD       SUNNY     82  47  29 SE13      29.96F
DRYDEN           N/A     82  68  62 E14       29.98R
FORT STOCKTON  NOT AVBL
GUAD PASS      NOT AVBL
HOBBS          CLOUDY    75  63  64 SE6       30.04S
MARFA          CLOUDY    79  52  38 E6        30.12S
MIDLAND AIRPK  MOCLDY    81  64  55 S14G20    30.01R
MIDLAND INTL   CLOUDY    81  64  56 S15       30.00R
ODESSA         PTCLDY    80  63  55 SW15      30.02R
PECOS          PTCLDY    85  64  48 E16G22    29.96F
PRESIDIO       FAIR      94  40  15 SE3       29.95R
SEMINOLE       CLOUDY    77  62  58 SW10      30.05S
SNYDER           N/A     82  65  56 S10       30.00R
WINK           NOT AVBL
$$
...OTHER STATIONS IN TEXAS...

CITY           SKY/WX    TMP DP  RH WIND       PRES   REMARKS
ABILENE        CLOUDY    83  66  56 SE9       29.96F
AMARILLO       CLOUDY    57  52  83 E28G35    30.14S
AUSTIN         PTCLDY    82  69  64 S9        29.99R
BROWNSVILLE    CLOUDY    82  74  76 E13       29.99R
CORPUS CHRISTI CLOUDY    82  74  76 SE13      29.98F
DALLAS FTW     CLOUDY    74  68  81 NE9       29.98R
DEL RIO        CLOUDY    84  71  65 SE9       29.93R
EL PASO        MOSUNNY   88  32  13 S15       29.97R
HOUSTON INT    PTCLDY    80  69  69 SE10      30.01R
LUBBOCK        CLOUDY    61  54  77 NE36G54   30.08S THUNDER BLWGDUST
SAN ANGELO     CLEAR     84  66  54 S8        29.96S
SAN ANTONIO    CLOUDY    82  68  62 SE16      30.00R
WACO           CLEAR     84  68  58 S13       29.98R
WICHITA FALLS  NOT AVBL
$$
...OTHER LOCATIONS IN NEW MEXICO...

CITY           SKY/WX    TMP DP  RH WIND       PRES   REMARKS
ALAMAGORDO     SUNNY     88  21   8 W10G16    29.98F
ALBUQUERQUE    MOSUNNY   83  16   8 S16       30.01F
CANNON AFB     CLOUDY    60  54  80 E26G33    30.10R
CLOVIS         CLOUDY    57  52  82 E28G36    30.12F
HOLLOMAN AFB   SUNNY     89  21   8 SW9       29.96F
ROSWELL        SUNNY     83  42  23 SE17      30.01R
RUIDOSO          N/A     66  43  42 SE16      30.20S
SANTA FE       SUNNY     79   8   6 SW17G24   30.07F
TRUTH OR CONSE SUNNY     86  19   8 SW15G24   29.99F
TUCUMCARI      CLOUDY    69  50  50 S18G30    30.00F
$$

USA.gov is the U.S. government's official web portal to all federal, state and local government web resources and services.